www.pogodaiklimat.ru

Погода и климат >> Архив погоды >> Норвегия >> Ona II


ПОГОДА в Ona II

  • Прогноз погоды в Ona II
  • Монитор погоды в Ona II
  • Климат города

АРХИВ ПОГОДЫ в Ona II

Время (UTC), дата Ветер
(напр.,м/с)
 
Видим.   Явления Облачность Т
(С)
Тd
(С)
f
(%)
Тe
(С)
Тes
(С)
Комфортность P
(гПа)
Po
(гПа)
Тmin
(С)
Tmax
(С)
R
(мм)
R24
(мм)
S
(см)
19 10.10 Ю 5
{7}
н/о н/о +10.8 +4.5 65 +8 +8 996.5 994.8
20 10.10 Ю 5
{7}
н/о н/о +11.1 +4.3 63 +9 +9 996.7 995.0
21 10.10 Ю 8
{9}
н/о н/о +11.4 +5.1 65 +8 +8 997.0 995.3
22 10.10 ЮЗ 12
{15}
н/о н/о +9.9 +4.5 69 +5 +5 997.1 995.4
23 10.10 ЮЗ 10
{13}
н/о н/о +10.3 +5.1 70 +6 +6 997.4 995.7
00 11.10 Ю 12
{16}
н/о н/о +10.1 +5.9 75 +5 +5 997.5 995.8 0.1
01 11.10 Ю 9
{14}
н/о н/о +9.8 +5.2 73 +6 +6 997.7 996.0 0.3
02 11.10 Ю 8
{10}
н/о н/о +10.5 +4.4 66 +7 +7 997.4 995.7
03 11.10 ЮВ 7
{10}
н/о н/о +10.6 +3.9 63 +7 +7 996.7 995.0
04 11.10 ЮВ 7
{10}
н/о н/о +10.8 +3.1 59 +8 +8 995.9 994.2
05 11.10 ЮВ 7
{8}
н/о н/о +10.7 +3.7 62 +7 +7 995.3 993.6
06 11.10 ЮВ 9
{14}
н/о н/о +10.6 +3.2 60 +7 +7 994.2 992.5 +9.2 +11.4
07 11.10 В 9
{12}
н/о н/о +10.4 +3.9 64 +7 +7 993.9 992.2
08 11.10 ЮВ 11
{12}
н/о н/о +10.1 +3.6 64 +6 +6 992.7 991.0 0.4
09 11.10 ЮВ 10
{13}
н/о н/о +10.8 +4.1 63 +7 +7 992.0 990.3
10 11.10 ЮВ 9
{11}
н/о н/о +11.4 +5.1 65 +8 +8 991.6 989.9
11 11.10 ЮВ 9
{11}
н/о н/о +11.2 +5.5 68 +8 +8 990.9 989.2
12 11.10 ЮВ 8
{13}
н/о н/о +11.2 +6.2 71 +8 +8 989.9 988.2
13 11.10 ЮВ 8
{10}
н/о н/о +12.0 +6.5 69 +9 +9 989.4 987.7
14 11.10 Ю 5 н/о н/о +12.8 +6.6 66 +11 +11 989.8 988.1
15 11.10 З 13 н/о н/о +11.4 +9.1 86 +7 +7 989.7 988.0 0.7
16 11.10 ЮЗ 13
{18}
н/о н/о +11.2 +7.9 80 +7 +7 990.7 989.0 0.2
17 11.10 Ю 9
{15}
н/о н/о +10.9 +7.6 80 +7 +7 990.9 989.2 0.1
18 11.10 ЮЗ 11
{18}
н/о н/о +11.8 +7.5 75 +8 +8 991.5 989.8 +12.9 2
19 11.10 ЮЗ 12
{16}
н/о н/о +10.5 +8.3 86 +6 +6 992.3 990.6 0.3
20 11.10 ЮЗ 9
{12}
н/о н/о +10.5 +8.3 86 +6 +6 993.1 991.4
21 11.10 Ю 7
{11}
н/о н/о +10.9 +8.0 82 +7 +7 993.3 991.6
22 11.10 ЮЗ 7
{9}
н/о н/о +10.9 +8.1 83 +7 +7 993.4 991.7
23 11.10 Ю 7
{9}
н/о н/о +11.0 +7.7 80 +8 +8 993.8 992.1
00 12.10 Ю 5
{16}
н/о н/о +11.2 +7.7 79 +9 +9 994.0 992.3
01 12.10 Ю 5
{12}
н/о н/о +11.2 +7.1 76 +9 +9 994.1 992.4
02 12.10 Ю 5
{9}
н/о н/о +11.1 +6.9 75 +8 +8 994.2 992.5
03 12.10 ЮЗ 8
{11}
н/о н/о +10.6 +7.1 79 +7 +7 994.2 992.5
04 12.10 ЮЗ 6
{9}
н/о н/о +11.1 +6.7 74 +8 +8 994.4 992.7
05 12.10 ЮЗ 9
{11}
н/о н/о +9.9 +6.4 79 +6 +6 994.7 993.0
06 12.10 ЮЗ 4
{12}
н/о н/о +10.6 +3.6 62 +8 +8 995.1 993.4 +9.8 +11.8
07 12.10 Ю 6
{9}
н/о н/о +10.2 +4.6 68 +7 +7 995.6 993.9
08 12.10 Ю 6
{7}
н/о н/о +10.8 +5.6 70 +8 +8 996.1 994.4
09 12.10 Ю 6
{7}
н/о н/о +10.8 +5.4 69 +8 +8 996.8 995.1
10 12.10 ЮЗ 7
{9}
н/о н/о +11.1 +5.4 68 +8 +8 997.5 995.8
11 12.10 ЮЗ 11
{13}
н/о н/о +10.3 +6.1 75 +6 +6 998.1 996.4
12 12.10 ЮЗ 6
{13}
н/о н/о +10.9 +6.1 72 +8 +8 999.1 997.4 0.1
13 12.10 ЮЗ 7
{10}
н/о н/о +11.4 +5.1 65 +8 +8 999.9 998.2
14 12.10 ЮЗ 8
{15}
н/о н/о +10.8 +5.6 70 +7 +7 1001.0 999.3
15 12.10 ЮЗ 9
{11}
н/о н/о +11.2 +6.2 71 +8 +8 1001.8 1000.1
16 12.10 ЮЗ 10
{15}
н/о н/о +10.6 +6.9 78 +6 +6 1002.7 1001.0
17 12.10 ЮЗ 10
{14}
н/о н/о +10.5 +7.4 81 +6 +6 1003.9 1002.2
18 12.10 ЮЗ 11
{15}
н/о н/о +10.4 +6.6 77 +6 +6 1004.8 1003.1 +9.3 +11.7
19 12.10 ЮЗ 10
{18}
н/о н/о +10.1 +7.0 81 +6 +6 1006.0 1004.2 0.2
20 12.10 Ю 8
{12}
н/о н/о +10.0 +7.1 82 +6 +6 1006.9 1005.1
21 12.10 Ю 10
{12}
н/о н/о +10.2 +6.2 76 +6 +6 1007.3 1005.5
22 12.10 ЮЗ 9
{11}
н/о н/о +10.5 +5.5 71 +7 +7 1007.7 1005.9
23 12.10 Ю 8
{11}
н/о н/о +10.6 +5.4 70 +7 +7 1008.3 1006.5
00 13.10 Ю 9
{18}
н/о н/о +10.8 +4.7 66 +7 +7 1008.2 1006.5
01 13.10 Ю 8
{11}
н/о н/о +10.7 +5.1 68 +7 +7 1008.7 1006.9
02 13.10 Ю 8
{10}
н/о н/о +10.9 +4.2 63 +7 +7 1008.8 1007.0
03 13.10 ЮВ 8
{9}
н/о н/о +10.7 +4.4 65 +7 +7 1008.0 1006.2
04 13.10 ЮВ 8
{10}
н/о н/о +11.0 +2.6 56 +8 +8 1007.1 1005.4
05 13.10 ЮВ 8
{10}
н/о н/о +10.8 +3.4 60 +7 +7 1006.5 1004.8
06 13.10 ЮВ 8
{11}
н/о н/о +11.1 +3.7 60 +8 +8 1005.4 1003.7 +9.9 +11.3
07 13.10 Ю 8
{10}
н/о н/о +10.2 +4.2 66 +6 +6 1005.2 1003.5 0.8
08 13.10 ЮВ 8
{10}
н/о н/о +10.1 +4.9 70 +6 +6 1003.9 1002.2 0.6
09 13.10 ЮВ 10
{13}
н/о н/о +10.5 +5.3 70 +6 +6 1002.3 1000.6
10 13.10 Ю 6
{12}
н/о н/о +11.7 +6.8 72 +9 +9 1002.3 1000.6 0.1
11 13.10 Ю 6
{8}
н/о н/о +11.8 +6.9 72 +9 +9 1001.1 999.4
12 13.10 Ю 5
{13}
н/о н/о +11.7 +8.4 80 +9 +9 1000.3 998.6
13 13.10 Ю 5
{7}
н/о н/о +12.1 +9.7 85 +10 +10 999.1 997.4
14 13.10 Ю 6
{7}
н/о н/о +13.4 +10.0 80 +11 +11 998.5 996.8 0.1
15 13.10 Ю 8
{9}
н/о н/о +13.4 +10.4 82 +11 +11 998.7 997.0 0.5
16 13.10 Ю 6
{8}
н/о н/о +13.8 +10.8 82 +12 +12 998.2 996.5 0.4
17 13.10 ЮЗ 9
{12}
н/о н/о +13.4 +10.8 84 +10 +10 998.4 996.7 0.7
18 13.10 ЮЗ 15
{22}
н/о н/о +11.9 +9.3 84 +7 +7 999.2 997.5 +9.8 +13.8 1
19 13.10 ЮЗ 15
{19}
н/о н/о +12.5 +8.2 75 +8 +8 999.4 997.7 0.2
20 13.10 ЮЗ 14
{18}
н/о н/о +13.1 +8.0 71 +9 +9 1000.1 998.4 0.1
21 13.10 ЮЗ 17
{22}
н/о н/о +13.5 +7.5 67 +10 +10 999.9 998.2
22 13.10 ЮЗ 15
{20}
н/о н/о +13.5 +7.7 68 +10 +10 1000.3 998.6
23 13.10 ЮЗ 16
{22}
н/о н/о +13.5 +7.3 66 +10 +10 1000.3 998.6
00 14.10 ЮЗ 19
{25}
н/о н/о +11.5 +7.0 74 +6 +6 999.6 997.9 0.7
01 14.10 ЮЗ 18 н/о н/о +12.8 +8.1 73 +8 +8 1001.1 999.4
02 14.10 Ю 14 н/о н/о +12.4 +7.9 74 +8 +8 1001.1 999.4 0.2
03 14.10 ЮЗ 17 н/о н/о +12.9 +7.2 68 +9 +9 1000.1 998.4 0.4
06 14.10 ЮЗ 16
{26}
н/о н/о +11.6 +6.5 71 +7 +7 1001.3 999.6 +10.1 +13.6
07 14.10 ЮЗ 15
{23}
н/о н/о +11.9 +6.4 69 +8 +8 1001.5 999.8 2
08 14.10 Ю 15 н/о н/о +11.0 +6.6 74 +6 +6 1001.9 1000.2
09 14.10 ЮЗ 17
{30}
н/о н/о +11.3 +6.7 73 +6 +6 1001.7 1000.0 0.7
10 14.10 ЮЗ 18
{22}
н/о н/о +11.5 +7.8 78 +6 +6 1002.0 1000.3 0.8
11 14.10 ЮЗ 20
{29}
н/о н/о +11.6 +7.7 77 +6 +6 1001.4 999.7
12 14.10 ЮЗ 20
{30}
н/о н/о +11.9 +7.4 74 +7 +7 1002.3 1000.6 0.1
13 14.10 ЮЗ 22
{28}
н/о н/о +12.7 +7.0 68 +8 +8 1000.7 999.0
14 14.10 ЮЗ 21
{31}
н/о н/о +12.1 +7.4 73 +7 +7 1001.2 999.5
15 14.10 ЮЗ 23
{29}
н/о н/о +11.8 +7.9 77 +6 +6 1001.5 999.8
16 14.10 ЮЗ 20
{28}
н/о н/о +12.4 +7.5 72 +8 +8 1001.4 999.7
17 14.10 ЮЗ 20
{29}
н/о н/о +11.2 +7.7 79 +6 +6 1002.9 1001.2
18 14.10 ЮЗ 21
{31}
н/о н/о +12.4 +7.7 73 +8 +8 1002.6 1000.9 +12.8 3
19 14.10 ЮЗ 22
{29}
н/о н/о +12.4 +7.7 73 +7 +7 1003.1 1001.4
20 14.10 ЮЗ 21
{29}
н/о н/о +10.1 +7.4 83 +4 +4 1004.2 1002.5
21 14.10 ЮЗ 22
{27}
н/о н/о +12.2 +6.9 70 +7 +7 1004.2 1002.5
22 14.10 ЮЗ 20
{28}
н/о н/о +11.5 +8.2 80 +6 +6 1005.2 1003.5
23 14.10 ЮЗ 21
{27}
н/о н/о +12.0 +6.7 70 +7 +7 1005.4 1003.7
00 15.10 З 20
{31}
н/о н/о +11.7 +6.4 70 +7 +7 1006.0 1004.3
01 15.10 ЮЗ 19
{25}
н/о н/о +11.6 +6.5 71 +7 +7 1007.5 1005.8
02 15.10 ЮЗ 18
{24}
н/о н/о +11.5 +7.2 75 +7 +7 1007.7 1006.0
03 15.10 З 17
{23}
н/о н/о +11.8 +6.9 72 +7 +7 1008.6 1006.9
04 15.10 З 14
{23}
н/о н/о +11.5 +6.8 73 +7 +7 1009.0 1007.3
05 15.10 З 15
{20}
н/о н/о +11.9 +7.0 72 +8 +8 1008.6 1006.9
06 15.10 ЮЗ 16
{25}
н/о н/о +12.2 +7.1 71 +8 +8 1008.1 1006.4 +9.2 +12.5
07 15.10 ЮЗ 13
{19}
н/о н/о +12.2 +6.5 68 +8 +8 1008.4 1006.7
08 15.10 ЮЗ 14
{17}
н/о н/о +11.5 +5.4 66 +7 +7 1008.7 1007.0
09 15.10 ЮЗ 10
{16}
н/о н/о +10.9 +6.1 72 +7 +7 1008.5 1006.7
10 15.10 ЮЗ 4
{10}
н/о н/о +10.2 +5.6 73 +8 +8 1007.8 1006.0 0.1
11 15.10 В 2
{5}
н/о н/о +9.4 +6.3 81 +8 +8 1006.5 1004.7
12 15.10 В 8
{19}
н/о н/о +9.2 +7.2 87 +5 +5 1004.5 1002.7 1
13 15.10 В 8
{11}
н/о н/о +8.8 +7.1 89 +4 +4 1002.6 1000.8 2
14 15.10 В 7
{11}
н/о н/о +9.2 +7.5 89 +5 +5 1000.7 999.0 0.6
15 15.10 ЮВ 4
{10}
н/о н/о +10.0 +8.3 89 +7 +7 999.6 997.9
16 15.10 Ю 5
{6}
н/о н/о +10.9 +9.7 92 +8 +8 998.4 996.7
17 15.10 Ю 6
{8}
н/о н/о +11.3 +10.1 92 +8 +8 997.4 995.7
18 15.10 ЮЗ 8
{11}
н/о н/о +12.3 +10.7 90 +9 +9 996.6 994.9 +8.7 +12.4 0.3
19 15.10 ЮЗ 8
{9}
н/о н/о +12.6 +11.0 90 +9 +9 995.3 993.6 0.1
20 15.10 ЮЗ 11
{14}
н/о н/о +14.7 +10.5 76 +12 +12 994.5 992.8
21 15.10 ЮЗ 13
{18}
н/о н/о +14.6 +11.0 79 +12 +12 993.6 991.9
22 15.10 ЮЗ 17
{20}
н/о н/о +15.7 +10.0 69 +13 +13 991.6 989.9
23 15.10 ЮЗ 24
{30}
н/о н/о +14.8 +9.2 69 +11 +11 991.7 990.0
00 16.10 ЮЗ 14
{35}
н/о н/о +13.3 +9.6 78 +8 +8 993.0 991.3
01 16.10 СЗ 16
{34}
н/о н/о +9.7 +6.6 81 +4 +4 1002.8 1001.1
02 16.10 З 15
{19}
н/о н/о +9.4 +5.8 78 +4 +4 1005.6 1003.8
03 16.10 З 12
{17}
н/о н/о +8.9 +6.0 82 +4 +4 1007.7 1005.9 0.4
04 16.10 З 12
{15}
н/о н/о +10.0 +5.2 72 +5 +5 1008.4 1006.6
05 16.10 З 11
{16}
н/о н/о +10.2 +5.2 71 +6 +6 1009.4 1007.6
06 16.10 З 11
{34}
н/о н/о +10.2 +3.9 65 +6 +6 1009.9 1008.1 +8.5 +16.5
07 16.10 З 11
{16}
н/о н/о +9.7 +5.1 73 +5 +5 1010.5 1008.7
08 16.10 З 10
{17}
н/о н/о +10.4 +4.6 67 +6 +6 1011.6 1009.8 0.5
09 16.10 З 10
{12}
н/о н/о +10.5 +4.9 68 +6 +6 1012.1 1010.3
10 16.10 З 12
{17}
н/о н/о +10.1 +5.1 71 +5 +5 1011.8 1010.0
11 16.10 З 13
{20}
н/о н/о +11.1 +4.6 64 +7 +7 1012.2 1010.4 0.9
12 16.10 З 13
{20}
н/о н/о +10.9 +4.6 65 +6 +6 1012.6 1010.8
13 16.10 З 12
{17}
н/о н/о +10.9 +4.8 66 +7 +7 1013.2 1011.4
14 16.10 ЮЗ 13
{16}
н/о н/о +9.6 +5.8 77 +4 +4 1013.4 1011.6 3
15 16.10 З 13
{16}
н/о н/о +10.3 +5.9 74 +5 +5 1013.0 1011.2 3
16 16.10 З 13
{16}
н/о н/о +10.8 +5.6 70 +6 +6 1013.2 1011.4
17 16.10 З 11
{15}
н/о н/о +10.8 +5.8 71 +7 +7 1013.5 1011.7
18 16.10 ЮЗ 8
{17}
н/о н/о +10.1 +6.3 77 +6 +6 1013.8 1012.0 +11.2 7
19 16.10 Ю 9 н/о н/о +9.5 +6.4 81 +5 +5 1014.0 1012.2 0.4
20 16.10 ЮЗ 8
{11}
н/о н/о +9.2 +6.5 83 +5 +5 1013.9 1012.1 0.5
21 16.10 Ю 8
{9}
н/о н/о +9.4 +6.1 80 +5 +5 1013.7 1011.9
22 16.10 Ю 6
{9}
н/о н/о +9.4 +5.8 78 +6 +6 1013.5 1011.7
23 16.10 Ю 5
{7}
н/о н/о +10.0 +5.2 72 +7 +7 1011.8 1010.0
00 17.10 ЮВ 3
{12}
н/о н/о +9.7 +4.1 68 +8 +8 1010.8 1009.0
01 17.10 В 4
{7}
н/о н/о +9.2 +5.4 77 +6 +6 1009.7 1007.9
02 17.10 В 4
{6}
н/о н/о +9.4 +4.2 70 +7 +7 1008.1 1006.3
03 17.10 СВ 6
{10}
н/о н/о +9.9 +4.5 69 +7 +7 1006.7 1004.9
04 17.10 В 7
{9}
н/о н/о +9.6 +4.4 70 +6 +6 1006.1 1004.3
05 17.10 В 7
{9}
н/о н/о +9.6 +4.0 68 +6 +6 1005.1 1003.3
06 17.10 СВ 5
{10}
н/о н/о +9.7 +3.0 63 +7 +7 1004.3 1002.5 +8.8 +10.1
07 17.10 В 5
{8}
н/о н/о +9.4 +4.0 69 +6 +6 1003.6 1001.8
08 17.10 СВ 7
{9}
н/о н/о +9.8 +4.2 68 +6 +6 1003.2 1001.5
09 17.10 В 8
{11}
н/о н/о +10.0 +4.8 70 +6 +6 1002.9 1001.2
10 17.10 В 7
{11}
н/о н/о +9.8 +4.2 68 +6 +6 1003.1 1001.4
11 17.10 В 4
{10}
н/о н/о +9.4 +4.6 72 +7 +7 1003.4 1001.6
12 17.10 В 4
{11}
н/о н/о +9.1 +5.3 77 +6 +6 1003.3 1001.5
13 17.10 В 3
{6}
н/о н/о +9.2 +5.4 77 +7 +7 1003.6 1001.8
14 17.10 СВ 9
{13}
н/о н/о +9.6 +5.0 73 +5 +5 1003.9 1002.1 0.1
15 17.10 СВ 7
{12}
н/о н/о +9.5 +3.9 68 +6 +6 1004.6 1002.8
16 17.10 СВ 7
{11}
н/о н/о +9.2 +3.4 67 +5 +5 1005.3 1003.5
17 17.10 СВ 6
{11}
н/о н/о +9.1 +1.8 60 +6 +6 1006.1 1004.3

 

Местоположение метеостанции Ona II (Норвегия): широта 62.86 долгота 6.54 высота над уровнем моря 13 м.

В архиве по умолчанию представлена погода в Ona II за последнюю неделю. Архивные данные за месяц целиком и за предыдущие месяцы, начиная с января 2011 года, Вы можете получить, выбрав интересующий диапазон дат из раскрывающегося списка и нажав кнопку "Ввод!".

Внимание! Время в таблицах - всемирное. Для получения местного времени необходимо прибавить поправку, которая в Ona II равна 1 ч.

Смотрите также архив погоды в соседних городах и на ближайших метеорологических станциях:

Погода в Rekdal (Норвегия) (26 км)
Погода в Molde Luhthavn (Норвегия) (39 км)
Погода в Alesund Lufthavn (Норвегия) (39 км)
Погода в Lebergsfjellet (Норвегия) (41 км)
Погода в Alesund IV (Норвегия) (47 км)
Погода в Kristiansund Lufthavn (Норвегия) (70 км)
Погода в Mannen (Норвегия) (77 км)
Погода в Orsta-Volda Lufthavn (Норвегия) (79 км)
Погода в Marstein (Норвегия) (81 км)
Погода в Tafjord (Норвегия) (83 км)

Пояснения к столбцам:

Ветер - указаны скорость ветра в м/с - средняя за 10 мин, порывы в срок и между сроками (в фигурных скобках) и направление, откуда дует ветер: С - северный, СВ - северо-восточный, В - восточный, ЮВ - юго-восточный, Ю - южный, ЮЗ - юго-западный, З - западный, СЗ - северо-западный.
Видимость - горизонтальная дальность видимости в метрах или километрах. При видимости от 1 до 10 км при отсутствии осадков обычно наблюдается дымка, при ухудшении видимости до 1 км и менее - туман. В сухую погоду видимость может ухудшаться дымом, пылью или мглою.
Явления - указаны атмосферные явления, наблюдавшиеся в срок или в последний час перед сроком; фигурными скобками обозначены явления, наблюдавшиеся между сроками (за 1-3 часа до срока); квадратными скобками обозначены град или гололедные отложения с указанием их диаметра в мм.
Облачность - указаны через наклонную черту общая и нижняя облачность в баллах и высота нижней границы облаков в метрах; квадратными скобками обозначены формы облаков: Ci - перистые, Cs - перисто-слоистые, Cc - перисто-кучевые, Ac - высококучевые, As - высокослоистые, Sc - слоисто-кучевые, Ns - слоисто-дождевые, Cu - кучевые, Cb - кучево-дождевые. Подробнее классификацию облаков см. в Атласе облаков (PDF).
T - Температура воздуха - температура, измеренная на высоте 2 м над землей.
Td - Температура точки росы - температура, при понижении до которой содержащийся в воздухе водяной пар достигнет насыщения.
f - Относительная влажность воздуха - влажноcть воздуха, измеренная на высоте 2 м над землей.
Te - Эффективная температура - температура, которую ощущает одетый по сезону человек в тени. Характеристика душности погоды. При расчете учитывается влияние влажности воздуха и скорости ветра на теплоощущения человека.
Tes - Эффективная температура на солнце - температура, которую ощущает человек, с поправкой на солнечный нагрев. Характеристика знойности погоды. Зависит от высоты солнца над горизонтом, облачности и скорости ветра. Ночью, в пасмурную погоду, а также при ветре 12 м/с и более поправка равна нулю.
P - Атмосферное давление - приведенное к уровню моря атмосферное давление.
Po - Атмосферное давление - измеренное на уровне метеостанции атмосферное давление.
Tmin - Минимальная температура - минимум температуры воздуха на высоте 2 м над землей.
Tmax - Максимальная температура - максимум температуры воздуха на высоте 2 м над землей.
R - Количество осадков - Количество выпавших осадков за период времени, мм. При наведении курсора мыши на число - период времени, за который выпало указанное количество осадков.
R24 - Количество осадков - Количество выпавших осадков за 24 часа, мм.
S - Снежный покров - Высота снежного покрова, см. При наведении курсора мыши на число - состояние снежного покрова и степень покрытия местности в баллах.